TimeCDT,TemperatureF,Dew PointF,Humidity,Sea Level PressureIn,VisibilityMPH,Wind Direction,Wind SpeedMPH,Gust SpeedMPH,PrecipitationIn,Events,Conditions,WindDirDegrees,DateUTC
12:23 AM,57.2,55.4,94,29.85,10.0,ESE,20.7,29.9,N/A,Thunderstorm,Overcast,120,2013-05-27 05:23:00
12:38 AM,57.2,55.4,94,29.82,10.0,ESE,24.2,34.5,N/A,,Overcast,110,2013-05-27 05:38:00
12:52 AM,59.0,55.0,87,29.83,10.0,ESE,21.9,29.9,N/A,,Overcast,110,2013-05-27 05:52:00
1:16 AM,59.0,55.4,88,29.82,10.0,ESE,21.9,28.8,0.00,Rain,Light Rain,110,2013-05-27 06:16:00
1:27 AM,59.0,55.4,88,29.83,10.0,ESE,25.3,31.1,0.00,Rain-Thunderstorm,Light Thunderstorms and Rain,120,2013-05-27 06:27:00
1:42 AM,57.2,55.4,94,29.95,2.5,SSW,23.0,40.3,0.00,Rain-Thunderstorm,Light Thunderstorms and Rain,210,2013-05-27 06:42:00
1:50 AM,57.2,55.4,94,29.89,1.0,SSE,12.7,33.4,0.40,Rain-Thunderstorm,Heavy Thunderstorms and Rain,150,2013-05-27 06:50:00
1:52 AM,57.0,55.9,96,29.88,1.0,SSE,13.8,24.2,0.51,Rain-Thunderstorm,Heavy Thunderstorms and Rain,150,2013-05-27 06:52:00
2:00 AM,57.2,55.4,94,29.87,3.0,SSE,8.1,-,0.12,Rain-Thunderstorm,Thunderstorms and Rain,150,2013-05-27 07:00:00
2:08 AM,57.2,55.4,94,29.88,5.0,SSE,6.9,-,0.15,Rain-Thunderstorm,Rain,150,2013-05-27 07:08:00
2:31 AM,57.2,57.2,100,29.88,5.0,SW,9.2,-,0.23,Rain-Thunderstorm,Rain,220,2013-05-27 07:31:00
2:52 AM,57.9,57.0,97,29.90,3.0,SSW,3.5,-,0.34,Rain,Heavy Rain,200,2013-05-27 07:52:00
3:06 AM,57.2,57.2,100,29.91,5.0,East,6.9,-,0.06,Rain,Rain,90,2013-05-27 08:06:00
3:17 AM,57.2,57.2,100,29.88,5.0,NE,10.4,-,0.09,Rain-Thunderstorm,Rain,40,2013-05-27 08:17:00
3:31 AM,57.2,57.2,100,29.87,6.0,NE,10.4,-,0.12,Rain-Thunderstorm,Thunderstorms and Rain,40,2013-05-27 08:31:00
3:49 AM,57.2,55.4,94,29.77,9.0,NNE,23.0,31.1,0.16,Rain-Thunderstorm,Light Rain,30,2013-05-27 08:49:00
3:52 AM,57.9,55.9,93,29.76,9.0,NNE,23.0,31.1,0.16,Rain,Light Rain,30,2013-05-27 08:52:00
4:01 AM,57.2,55.4,94,29.83,10.0,North,9.2,28.8,0.01,Rain,Light Rain,10,2013-05-27 09:01:00
4:52 AM,57.9,55.9,93,29.78,10.0,East,11.5,26.5,0.01,,Clear,80,2013-05-27 09:52:00
5:04 AM,57.2,57.2,100,29.83,10.0,SE,5.8,-,N/A,,Scattered Clouds,130,2013-05-27 10:04:00
5:15 AM,57.2,55.4,94,29.82,10.0,ENE,4.6,-,N/A,,Mostly Cloudy,70,2013-05-27 10:15:00
5:48 AM,57.2,55.4,94,29.82,10.0,NE,9.2,-,N/A,,Overcast,40,2013-05-27 10:48:00
5:52 AM,57.9,55.9,93,29.81,10.0,NE,8.1,-,N/A,,Mostly Cloudy,50,2013-05-27 10:52:00
6:06 AM,59.0,55.4,88,29.80,10.0,NE,10.4,-,N/A,,Scattered Clouds,40,2013-05-27 11:06:00
6:52 AM,57.0,55.0,93,29.79,10.0,SSE,6.9,-,N/A,,Clear,150,2013-05-27 11:52:00
7:52 AM,57.0,55.9,96,29.83,10.0,SW,8.1,-,N/A,,Clear,220,2013-05-27 12:52:00
8:52 AM,59.0,57.0,93,29.85,10.0,SSE,3.5,-,N/A,,Scattered Clouds,160,2013-05-27 13:52:00
9:52 AM,62.1,57.9,86,29.78,10.0,East,11.5,-,N/A,,Clear,80,2013-05-27 14:52:00
10:20 AM,62.6,57.2,82,29.76,10.0,ENE,16.1,-,N/A,,Mostly Cloudy,70,2013-05-27 15:20:00
10:52 AM,64.9,59.0,81,29.74,10.0,NE,16.1,26.5,N/A,,Mostly Cloudy,50,2013-05-27 15:52:00
10:59 AM,64.4,57.2,77,29.74,10.0,ENE,16.1,26.5,N/A,,Scattered Clouds,60,2013-05-27 15:59:00
11:32 AM,64.4,57.2,77,29.82,10.0,ESE,5.8,-,N/A,,Overcast,120,2013-05-27 16:32:00
11:52 AM,66.0,59.0,78,29.82,10.0,SE,5.8,-,N/A,,Overcast,130,2013-05-27 16:52:00
12:52 PM,66.0,57.9,75,29.81,10.0,SE,3.5,-,N/A,,Overcast,130,2013-05-27 17:52:00
1:05 PM,66.2,59.0,78,29.82,10.0,East,4.6,-,N/A,,Overcast,90,2013-05-27 18:05:00
1:15 PM,68.0,57.2,68,29.81,10.0,East,4.6,-,N/A,,Overcast,100,2013-05-27 18:15:00
1:36 PM,69.8,59.0,68,29.81,10.0,Calm,Calm,-,N/A,,Overcast,0,2013-05-27 18:36:00
1:52 PM,70.0,60.1,71,29.81,10.0,Calm,Calm,-,N/A,,Overcast,0,2013-05-27 18:52:00
2:52 PM,71.1,59.0,66,29.77,10.0,Calm,Calm,-,N/A,,Clear,0,2013-05-27 19:52:00
3:52 PM,73.9,61.0,64,29.75,10.0,NNE,9.2,-,N/A,,Clear,30,2013-05-27 20:52:00
4:52 PM,73.9,59.0,59,29.73,10.0,North,5.8,-,N/A,,Partly Cloudy,10,2013-05-27 21:52:00
5:52 PM,72.0,60.1,66,29.73,10.0,ENE,9.2,-,N/A,,Mostly Cloudy,60,2013-05-27 22:52:00
6:52 PM,70.0,60.1,71,29.71,10.0,NE,12.7,-,N/A,,Clear,40,2013-05-27 23:52:00
7:52 PM,66.0,59.0,78,29.73,10.0,NE,15.0,-,N/A,,Clear,40,2013-05-28 00:52:00
8:52 PM,63.0,57.0,81,29.72,10.0,ENE,11.5,-,N/A,,Partly Cloudy,60,2013-05-28 01:52:00
9:52 PM,61.0,55.9,83,29.76,10.0,East,9.2,-,N/A,,Partly Cloudy,90,2013-05-28 02:52:00
10:52 PM,60.1,55.9,86,29.73,10.0,East,8.1,-,N/A,,Scattered Clouds,80,2013-05-28 03:52:00
11:48 PM,60.8,57.2,88,29.71,10.0,East,9.2,-,N/A,,Mostly Cloudy,90,2013-05-28 04:48:00
11:52 PM,60.1,57.0,90,29.70,10.0,ESE,9.2,-,N/A,,Mostly Cloudy,110,2013-05-28 04:52:00